Location: Allen Fire Department Station 4
(33.1073°N, 96.6988°W)
Time: 10:56:27
(UTC+00:00)

OAO 3 Rocket - Pass Details

Date: 03 December 2021
Orbit: 629 x 682 km, 35.0° (Epoch: 23 January)

Event Time Altitude Azimuth Distance (km) Brightness Sun altitude
Exits shadow 12:06:19 19° 264° (W) 1,610 4.6 -14.0°
Maximum altitude 12:09:22 38° 207° (SSW) 1,034 4.1 -13.4°
Drops below altitude 10° 12:13:54 10° 139° (SE) 2,100 6.8 -12.4°
Sets 12:16:25 0° 131° (SE) 3,007 8.0 -12.0°
